Back to catalog

STARLINK-6035

AliveCommunicationsSSO
NORAD 56323·PAYLOAD·🇺🇸 United States

Launched Apr 27, 2023 from Vandenberg Space Force Base

Loading…

Next Passes (next 24 hours)

TLE

FreshSource: CelesTrak SupGP

Epoch: Sep 14, 2026, 21:27 UTC

1 56323C 23058G   26257.89423611  .00637580  00000+0  38087-1 0  2575
2 56323  97.2853 252.0540 0001484  81.1503  56.0392 15.10865534    12

Track STARLINK-6035 in real time with AllMySat

Download on the App Store